Location: Unspecified
(48.5670°N, 0.0000°E)
Time: 06:10:29
(UTC+00:00)

Vanguard 2 Rocket - Pass Details

Date: 01 September 2019
Orbit: 554 x 3327 km, 32.9° (Epoch: 19 September)

Event Time Altitude Azimuth Distance (km) Brightness Sun altitude
Rises 07:19:44 0° 267° (W) 6,002 10.5 19.4°
Reaches altitude 10° 07:25:45 10° 248° (WSW) 5,476 10.4 20.3°
Maximum altitude 07:34:27 16° 217° (SW) 5,445 10.7 21.8°
Drops below altitude 10° 07:44:18 10° 187° (S) 6,256 11.3 23.3°
Sets 07:52:20 0° 170° (S) 7,271 11.8 24.6°
